Location: Unspecified
(49.9820°N, 20.4363°E)
Time: 00:11:46
(UTC+02:00)

ISS - Pass Details

Date: 26 May 2018
Orbit: 402 x 407 km, 51.6° (Epoch: 24 May)

Event Time Altitude Azimuth Distance (km) Brightness Sun altitude
Rises 21:08:11 0° 250° (WSW) 2,317 0.4 -5.4°
Reaches altitude 10° 21:10:16 10° 250° (WSW) 1,459 -0.6 -5.6°
Maximum altitude 21:13:32 85° 162° (SSE) 411 -3.9 -6.0°
Drops below altitude 10° 21:16:48 10° 74° (ENE) 1,461 -1.3 -6.4°
Sets 21:18:53 0° 74° (ENE) 2,321 -0.3 -6.6°
